DW7214 Weather Reports


time (UTC)temp
C
wind
direction
speed
KPH
gust
KPH
rain 1hr
cm
rain 24hr
cm
rain mn
cm
humidity
%
barometer
mb
20260504233028 23 119 3.2 12.9 0.00 0.00 0.00 58 1011.7
20260504231517 23 57 3.2 17.7 0.00 0.00 0.00 60 1011.9
20260504230027 22 80 1.6 17.7 0.00 0.00 0.00 61 1011.9
20260504224526 22 142 3.2 12.9 0.00 0.00 0.00 64 1012.1
20260504223028 22 159 3.2 9.7 0.00 0.00 0.00 65 1012.3
20260504221522 22 55 4.8 9.7 0.00 0.00 0.00 65 1012.5
20260504220023 21 140 3.2 16.1 0.00 0.00 0.00 65 1012.7
20260504214526 21 30 1.6 16.1 0.00 0.00 0.00 65 1012.9
20260504213024 21 60 3.2 11.3 0.00 0.00 0.00 66 1012.9
20260504211528 20 115 1.6 16.1 0.00 0.00 0.00 66 1013.1
20260504210018 21 153 3.2 9.7 0.00 0.00 0.00 66 1013.3
20260504204504 21 55 3.2 9.7 0.00 0.00 0.00 66 1013.5
20260504203011 20 190 3.2 9.7 0.00 0.00 0.00 66 1013.5
20260504201513 20 65 4.8 9.7 0.00 0.00 0.00 67 1013.7
20260504200032 19 138 1.6 9.7 0.00 0.00 0.00 68 1013.8
20260504194522 19 70 3.2 8.0 0.00 0.00 0.00 68 1013.9
20260504193008 18 46 3.2 11.3 0.00 0.00 0.00 70 1014.0
20260504191520 18 65 1.6 9.7 0.00 0.00 0.00 72 1014.3
20260504190016 17 28 4.8 9.7 0.00 0.00 0.00 71 1014.3
20260504184518 17 89 1.6 11.3 0.00 0.00 0.00 74 1014.4
20260504183037 17 144 3.2 8.0 0.00 0.00 0.00 72 1014.6
20260504181513 16 44 1.6 9.7 0.00 0.00 0.00 76 1014.6
20260504180017 16 76 0.0 6.4 0.00 0.00 0.00 77 1014.5
20260504174522 15 144 1.6 6.4 0.00 0.00 0.00 78 1014.4
20260504173026 15 137 4.8 9.7 0.00 0.00 0.00 78 1014.6
20260504171508 15 67 1.6 8.0 0.00 0.00 0.00 81 1014.5
20260504081526 13 46 1.6 6.4 0.00 0.00 0.00 81 1009.6
20260504050024 17 244 0.0 3.2 0.00 0.00 0.00 68 1008.5
20260504044535 18 172 0.0 3.2 0.00 0.00 0.00 62 1008.5
20260504043023 20 225 0.0 3.2 0.00 0.00 0.00 60 1008.1
20260504041525 21 321 1.6 3.2 0.00 0.00 0.00 54 1007.8
20260504040028 22 263 1.6 6.4 0.00 0.00 0.00 48 1007.6
20260504034534 22 292 3.2 8.0 0.00 0.00 0.00 47 1007.5
20260504033020 23 240 3.2 6.4 0.00 0.00 0.00 47 1007.4
20260504031522 23 242 4.8 8.0 0.00 0.00 0.00 46 1007.3
20260504030039 25 231 3.2 6.4 0.00 0.00 0.00 48 1007.2
20260504024528 26 228 1.6 3.2 0.00 0.00 0.00 50 1007.2
20260504023027 28 198 0.0 3.2 0.00 0.00 0.00 42 1007.2
20260504021522 30 192 0.0 3.2 0.00 0.00 0.00 37 1007.1
20260504020024 31 194 0.0 3.2 0.00 0.00 0.00 36 1007.2
20260504014536 31 223 0.0 3.2 0.00 0.00 0.00 33 1007.3
20260504013032 31 285 1.6 4.8 0.00 0.00 0.00 28 1007.3
20260504011526 31 297 1.6 4.8 0.00 0.00 0.00 28 1007.4
20260504010023 31 5 1.6 8.0 0.00 0.00 0.00 25 1007.5
20260504004531 31 330 3.2 9.7 0.00 0.00 0.00 26 1007.7
20260504003033 31 294 3.2 8.0 0.00 0.00 0.00 26 1007.9
20260504001528 31 302 3.2 12.9 0.00 0.00 0.00 30 1007.9
20260504000024 31 286 4.8 12.9 0.00 0.00 0.00 28 1007.8
20260503234537 31 277 4.8 11.3 0.00 0.00 0.00 28 1007.9